Regional Weather Roundup
Issued by NWS San Angelo, TX

Home | Current Version | Previous Version | Text Only | Print | Product List | Glossary On
Versions: 1 2 3 4 5 6 7 8 9 10 11 12 13 14 15 16 17 18 19 20 21 22 23 24 25 26 27 28 29 30 31 32 33 34 35 36 37 38 39 40 41 42 43 44 45 46 47 48 49 50
000
ASUS44 KSJT 012110
RWRSJT
WEST CENTRAL TEXAS REGIONAL WEATHER ROUNDUP
NATIONAL WEATHER SERVICE SAN ANGELO TX
400 PM CDT SAT AUG 01 2015

NOTE: "FAIR" INDICATES FEW OR NO CLOUDS BELOW 12,000 FEET WITH NO
SIGNIFICANT WEATHER AND/OR OBSTRUCTIONS TO VISIBILITY.

TXZ049-054-064>066-071>073-076>078-098-099-113-114-127-128-139-140-
154-155-168>170-012200
...LOCATIONS ACROSS WEST CENTRAL TEXAS...

CITY           SKY/WX    TMP DP  RH WIND       PRES   REMARKS
SAN ANGELO     SUNNY     97  64  33 E13G18    30.00F
ABILENE        SUNNY     92  67  43 E10       30.04F
DYESS AFB      SUNNY     93  70  47 NE8       30.02F
JUNCTION       MOSUNNY   96  61  31 MISG      30.00F
SWEETWATER     MOSUNNY   89  67  47 E12G18    30.07F
BROWNWOOD      SUNNY     93  63  36 NE9G16    30.01F
COLEMAN        PTCLDY    93  65  39 E10G17    30.03F
SONORA         PTSUNNY   91  63  38 E8        30.05F
OZONA          FAIR      86  63  45 SE17G24   30.06S
BRADY          SUNNY     97  63  32 NE9       30.01F
$$

TEXAS PANHANDLE/OKLAHOMA PANHANDLE

CITY           SKY/WX    TMP DP  RH WIND       PRES   REMARKS
AMARILLO       MOSUNNY   83  68  60 S17       30.10F
BORGER         MOSUNNY   84  67  56 S13       30.07F
CANADIAN       PTSUNNY   89  65  44 SW6       30.02F
DALHART        MOSUNNY   88  67  49 S13       30.09F
DUMAS          PTCLDY    83  67  59 S12G20    30.09F
GUYMON         NOT AVBL
HEREFORD       PTCLDY    85  70  60 MISG      30.10F
PAMPA          PTCLDY    85  67  54 S12G17    30.09F
PERRYTON       MOSUNNY   88  65  46 S10       30.05F
$$

SOUTHERN PANHANDLE/SOUTH PLAINS/ROLLING PLAINS

CITY           SKY/WX    TMP DP  RH WIND       PRES   REMARKS
LUBBOCK        MOSUNNY   88  67  49 S10       30.09F
SNYDER         MOSUNNY   90  69  48 E14       30.05F
CHILDRESS      CLOUDY    79  71  76 S10       30.05F
SEMINOLE       PTCLDY    91  59  33 SE10G18   30.07F
$$

PERMIAN BASIN

CITY           SKY/WX    TMP DP  RH WIND       PRES   REMARKS
MIDLAND        MOSUNNY   96  59  29 SE7       30.02F
ODESSA         SUNNY     97  55  24 SE13G20   30.03F
WINK           SUNNY    100  53  20 S9G20     29.99F
$$

FAR WEST/SOUTHWEST MOUNTAINS/TRANS PECOS

CITY           SKY/WX    TMP DP  RH WIND       PRES   REMARKS
ALPINE         CLOUDY    70  63  77 W15       30.21F
DRYDEN           N/A     99  61  28 SE8G21    29.97F
EL PASO        MOSUNNY   92  53  26 CALM      30.06F
FORT STOCKTON  MOSUNNY   97  57  26 SE12G18   30.02F
GUADALUPE PASS MOSUNNY   84  57  39 E12       30.22F
MARFA          CLOUDY    75  64  69 NE13      30.19F
PECOS          CLEAR    101  53  20 E9G17     29.98F
$$

DALLAS/FORT WORTH METROPLEX

CITY           SKY/WX    TMP DP  RH WIND       PRES   REMARKS
DFW AIRPORT    PTSUNNY   96  53  23 E10       29.98F
FTW MEACHAM    MOSUNNY   94  55  26 VRB3      29.98F
DAL-EXECUTIVE  MOSUNNY   95  57  27 VRB3      29.98F
GRAND PRAIRIE  SUNNY     95  57  28 CALM      30.00F
ADDISON        MOSUNNY   95  48  20 SE5       30.01F
MESQUITE       CLEAR     95  50  21 E6        29.98F
LANCASTER      PTCLDY    95  52  23 E5        29.99F
$$

NORTH CENTRAL TEXAS

CITY           SKY/WX    TMP DP  RH WIND       PRES   REMARKS
SHRMAN/DENISON CLEAR     96  56  26 S7        30.01F
GAINESVILLE    SUNNY     94  54  26 E8        30.02F
BRIDGEPORT     NOT AVBL
DENTON         MOSUNNY   94  56  27 SE8       29.99F
WAXAHACHIE     PTCLDY    96  61  31 N8        29.99F
GRANBURY       MOCLDY    94  55  26 CALM      30.00F
$$

WESTERN NORTH TEXAS

CITY           SKY/WX    TMP DP  RH WIND       PRES   REMARKS
WICHITA FALLS  CLOUDY    84  72  67 SW3       30.02F
VERNON         CLOUDY    79  63  58 S7        30.05F
BRECKENRIDGE   CLEAR     93  63  36 E8        30.03S
COMANCHE       SUNNY     94  63  35 NE10G17   30.02F
$$

CENTRAL AND SOUTH CENTRAL TEXAS

CITY           SKY/WX    TMP DP  RH WIND       PRES   REMARKS
AUSTIN/BERGSTM MOSUNNY   96  57  27 NE12      29.94F
WACO           SUNNY     97  56  25 E6G16     29.97F
HILLSBORO      CLEAR     96  48  19 NE8G16    29.98F
TEMPLE         SUNNY     97  59  28 NE8G16    29.97F
KILLEEN-GRAY   SUNNY     95  55  26 VRB6G20   29.97F
FORT HOOD      SUNNY     95  53  24 E12       29.97F
GEORGETOWN     SUNNY     97  57  26 NE12G17   29.96F
LAGO VISTA     FAIR      96  53  22 NE10      29.99F
SAN MARCOS     SUNNY     97  57  26 NE10      29.95F
NEW BRAUNFELS  SUNNY    100  60  26 N8        29.93F
RANDOLPH AFB   MOSUNNY   96  60  29 NE12      29.94F
SAN ANTONIO    MOSUNNY   98  60  28 E9G16     29.94F
STINSON        SUNNY     99  61  28 E6        29.91F
PLEASANTON     NOT AVBL
LA GRANGE      SUNNY     97  65  35 NE5       29.91F
GIDDINGS       CLEAR     97  57  26 NE6       29.97F
$$

EAST TEXAS

CITY           SKY/WX    TMP DP  RH WIND       PRES   REMARKS
PARIS          SUNNY     95  61  31 NE3       30.00F
CLARKSVILLE    NOT AVBL
TYLER          SUNNY     97  58  27 E9        29.98F
LONGVIEW       MOSUNNY   98  58  26 VRB7      29.96F
PALESTINE      CLEAR     96  55  25 SE3       29.97F
NACOGDOCHES    SUNNY     95  61  31 NE5       29.95F
$$

TEXAS HILL COUNTRY AND EDWARDS PLATEAU

CITY           SKY/WX    TMP DP  RH WIND       PRES   REMARKS
LLANO          CLEAR    100  57  23 SE9G17    30.00F
HORSESHOE BAY  FAIR      97  56  25 E6        29.98F
KERRVILLE      SUNNY     93  60  33 NE10G21   30.00F
FREDERICKSBRG  SUNNY     93  59  32 E8        30.00F
ROCKSPRINGS    PTCLDY    97  61  30 E8G17     30.04F
HONDO          SUNNY     98  65  33 NE10      29.95F
UVALDE         CLEAR     96  64  34 E7G17     29.94F
DEL RIO        PTSUNNY   90  69  50 NE14G26   29.93F
$$

SOUTHEAST TEXAS

CITY           SKY/WX    TMP DP  RH WIND       PRES   REMARKS
COLLEGE STN    SUNNY     97  58  27 N8G18     29.93F
CALDWELL       CLEAR     95  52  23 NE9       29.96F
CROCKETT       LGT RAIN  99  64  32 NE9G17    29.98F
BRENHAM        SUNNY     96  61  30 E6        29.93F
HUNTSVILLE     SUNNY     96  60  30 E8        29.94F
CONROE         MOSUNNY   96  58  27 MISG      29.93F
HOUSTON BUSH   PTSUNNY   97  61  30 NE14G21   29.92F
HOUSTON HOBBY  PTSUNNY   96  58  27 E8G20     29.90F
PERLAND        SUNNY     98  61  29 N9        29.91F
WHARTON        CLEAR     97  58  27 NE10G17   29.91F
$$

THE UPPER TEXAS COAST

CITY           SKY/WX    TMP DP  RH WIND       PRES   REMARKS
ORANGE         CLEAR     95  52  22 N10       29.91F
PORT ARTHUR    SUNNY     98  63  31 NE12G17   29.89F
GALVESTON      SUNNY     94  65  38 E9        29.92F
ANGLETON       SUNNY     98  60  28 NE7G18    29.90F
BAY CITY       CLEAR     98  60  28 NE10      29.90S
$$

TEXAS COASTAL BEND, RIO GRANDE PLAINS DEEP SOUTH TEXAS

CITY           SKY/WX    TMP DP  RH WIND       PRES   REMARKS
VICTORIA       SUNNY     98  63  31 NE10G21   29.90F
BEEVILLE       FAIR      95  71  44 E7        29.91F
ROCKPORT       SUNNY     96  66  37 E13       29.89F
PORT ARANSAS   PTCLDY    89  76  67 SE10      29.91F
PORT LAVACA    CLEAR     97  63  32 E13       29.89F
CORPUS CHRISTI PTSUNNY   95  71  45 E13       29.90F
KINGSVILLE NAS MOSUNNY   98  72  42 NE12G18   29.89F
COTULLA        MOSUNNY   99  66  33 E14       29.91F
LAREDO         SUNNY    100  65  31 N8        29.91F
BROWNSVILLE    PTSUNNY   93  69  45 NE12      29.90F
PORT ISABEL    PTSUNNY   88  70  55 E9        29.91F
HEBBRONVILLE     N/A     96  62  31 E7G16     29.92F
MCALLEN        PTSUNNY   99  68  36 E5        29.89F
WESLACO        PTSUNNY   97  67  36 NE13      29.88F
FALFURRIAS     MOCLDY    98  66  35 E7        29.88F
EDINBURG       MOCLDY    98  64  33 NE6       29.88F
$$


USA.gov is the U.S. government's official web portal to all federal, state and local government web resources and services.